Miscellaneous Local Product
Issued by NWS North Platte, NE

Home | Current Version | Previous Version | Text Only | Print | Product List | Glossary On
Versions: 1 2 3 4 5 6 7 8 9 10 11 12 13 14 15 16 17 18 19 20 21 22 23 24 25 26 27 28 29 30 31 32 33 34 35 36 37 38 39 40 41 42 43 44 45 46 47 48 49 50
000
AXUS43 KLBF 251910
MISLBF


WESTERN AND NORTH CENTRAL NEBRASKA HOURLY WEATHER ROUNDUP
NATIONAL WEATHER SERVICE NORTH PLATTE NE
200 PM CDT WED MAR 25 2015

***STATIONS NOT REPORTING VARIABLES SUCH AS SKY/WEATHER OR
PRESSURE ARE PROVIDED BY THE NEBRASKA DEPARTMENT OF
ROADS...RAWS...AND APRS NETWORKS...AND ARE NOT UNDER
NATIONAL WEATHER SERVICE QUALITY CONTROL***

...OBSERVATIONS IN AND NEAR THE EASTERN PANHANDLE OF NEBRASKA...

CITY           SKY/WX    TMP DP  RH WIND       PRES   REMARKS
PINE RIDGE     CLOUDY    42  23  46 N13G23    30.23R
CHADRON        MOSUNNY   44  28  53 NE8       30.21S
ALLIANCE       PTSUNNY   42  26  53 N13       30.20S
SIDNEY         CLOUDY    40  30  67 N16       30.21R WCI  31
WHITECLAY        N/A     39  21  49 W12         N/A  WCI  31
BIG SPRINGS      N/A     38  29  69 N6          N/A  WCI  33
$$

...OBSERVATIONS IN NORTH CENTRAL NEBRASKA...

CITY           SKY/WX    TMP DP  RH WIND       PRES   REMARKS
VALENTINE      CLOUDY    41  22  46 NW18G30   30.20S
THEDFORD       CLOUDY    42  24  49 NW20G25   30.20R
AINSWORTH      CLOUDY    41  24  49 NW24G33   30.19R
O`NEILL        CLOUDY    44  25  48 N24       30.17S
ORD            CLOUDY    43  23  45 N18G30    30.18R
BROKEN BOW     CLOUDY    43  25  49 N18       30.18R
BROWNLEE         N/A     41  26  53 NW23        N/A
SPRINGVIEW       N/A     41  24  51 NW17G26     N/A
BREWSTER         N/A     42  24  48 W22         N/A
ROSE             N/A     42  26  52 SW20        N/A
NEWPORT          N/A     40  23  50 NW21        N/A  WCI  30
SARGENT          N/A     41  26  55 NW6G17      N/A
COMSTOCK         N/A     43  25  48 N15         N/A
EWING            N/A     42  29  59 N13G23      N/A
$$

...OBSERVATIONS IN SOUTHWEST NEBRASKA AND FAR NORTHEAST COLORADO...

CITY           SKY/WX    TMP DP  RH WIND       PRES   REMARKS
WRAY           LGT RAIN  37  37 100 N16       30.21R WCI  27
HOLYOKE        MOCLDY    41  34  75 N13       30.20S
IMPERIAL         N/A     38  33  82 N13       30.21R WCI  30
OGALLALA       CLOUDY    43  26  51 N13G18    30.20S
NORTH PLATTE   CLOUDY    41  24  51 NW13      30.20R
MCCOOK         LGT RAIN  39  34  82 N15       30.19R WCI  31
LEXINGTON      CLOUDY    43  27  54 N16       30.19R
PAXTON           N/A     39  28  66 NW9         N/A  WCI  33
SUTHERLAND       N/A     35  22  60 N12         N/A  WCI  26
BRADY            N/A     42  26  53 CALM        N/A
GOTHENBURG       N/A     39  24  55 N12         N/A  WCI  32
CALLAWAY         N/A     39  27  62 N13         N/A  WCI  31
$$

...NORTH PLATTE AREA...

CITY           SKY/WX    TMP DP  RH WIND       PRES   REMARKS
AIRPORT        CLOUDY    41  24  51 NW13      30.20R
DOWNTOWN         N/A     40  25  54 N8G16       N/A  WCI  34
$$

...SOME WEATHER OBSERVATIONS FROM AROUND THE REGION...

CITY           SKY/WX    TMP DP  RH WIND       PRES   REMARKS
DENVER         LGT SNOW  34  33  96 N12       30.23R FOG     WCI  25
LARAMIE        PTSUNNY   34  25  69 N9G20     30.19R WCI  27
CHEYENNE       MOSUNNY   38  21  50 N16G23    30.19S WCI  29
SCOTTSBLUFF    MOSUNNY   49  23  36 N14G24    30.20S
RAPID CITY     SUNNY     42  24  49 N29G39    30.20F
PIERRE         CLOUDY    39  22  50 NW23G30   30.20R WCI  28
WINNER         CLOUDY    43  20  39 NW29G36   30.19S
SIOUX FALLS    PTSUNNY   40  24  53 NW26G37   30.11R WCI  29
OMAHA          CLOUDY    44  33  65 N18       30.14R
GRAND ISLAND   CLOUDY    41  29  62 N16       30.18R
KANSAS CITY    CLOUDY    50  43  77 N16       30.03S
WICHITA        CLOUDY    70  45  40 NE20      29.86F
HAYS           CLOUDY    54  36  50 N31G37    30.04R
LIBERAL        PTSUNNY   63  34  34 N26       29.93R
GOODLAND       FLURRIES  36  34  92 N24G31    30.15R WCI  24
$$



USA.gov is the U.S. government's official web portal to all federal, state and local government web resources and services.